• In Uzbekistan
  • List of Countries
  • For 7 days
  • Water Temperature
  • Satellite Maps
  • Weather Map
  • Weather Widgets
  • user-avatar
    Login

    Hourly Weather Gjirokaster

    Today, 26 May, Friday

    Time Temperature Precipitation Wind Pressure Humidity
    00:00 +6°C° 0.1 mm 2 mps 648 mmHg 96%
    01:00 +6°C° 0 mm 2 mps 648 mmHg 96%
    02:00 +5°C° 0.3 mm 2 mps 648 mmHg 95%
    03:00 +5°C° 0.3 mm 2 mps 648 mmHg 95%
    04:00 +5°C° 0.3 mm 2 mps 647 mmHg 95%
    05:00 +6°C° 0.1 mm 2 mps 648 mmHg 91%
    06:00 +7°C° 0.1 mm 2 mps 648 mmHg 87%
    07:00 +8°C° 0 mm 2 mps 648 mmHg 82%
    08:00 +9°C° 0.2 mm 2 mps 649 mmHg 75%
    09:00 +12°C° 0.2 mm 1 mps 649 mmHg 69%
    10:00 +13°C° 0.2 mm 1 mps 649 mmHg 62%
    11:00 +13°C° 0.6 mm 2 mps 649 mmHg 64%
    12:00 +13°C° 0.6 mm 2 mps 649 mmHg 66%
    13:00 +13°C° 0.6 mm 2 mps 649 mmHg 68%
    14:00 +12°C° 0.6 mm 3 mps 649 mmHg 70%
    15:00 +12°C° 0.6 mm 3 mps 649 mmHg 71%
    16:00 +12°C° 0.6 mm 3 mps 649 mmHg 73%
    17:00 +10°C° 0.3 mm 3 mps 649 mmHg 79%
    18:00 +9°C° 0.3 mm 3 mps 649 mmHg 85%
    19:00 +7°C° 0.3 mm 3 mps 648 mmHg 91%
    20:00 +7°C° 0.1 mm 3 mps 648 mmHg 91%
    21:00 +6°C° 0.1 mm 2 mps 649 mmHg 91%
    22:00 +6°C° 0.1 mm 2 mps 649 mmHg 92%
    23:00 +6°C° 0 mm 2 mps 649 mmHg 91%

    Tomorrow, 27 May, Saturday

    Time Temperature Precipitation Wind Pressure Humidity
    00:00 +6°C° 0 mm 2 mps 648 mmHg 90%
    01:00 +5°C° 0 mm 2 mps 648 mmHg 90%
    02:00 +5°C° 0 mm 2 mps 648 mmHg 90%
    03:00 +5°C° 0 mm 2 mps 648 mmHg 89%
    04:00 +5°C° 0 mm 2 mps 648 mmHg 89%
    05:00 +8°C° 0 mm 1 mps 649 mmHg 84%
    06:00 +10°C° 0 mm 1 mps 650 mmHg 79%
    07:00 +12°C° 0 mm 1 mps 650 mmHg 74%
    08:00 +13°C° 0.1 mm 2 mps 651 mmHg 69%
    09:00 +15°C° 0.1 mm 2 mps 651 mmHg 64%
    10:00 +16°C° 0.1 mm 2 mps 652 mmHg 58%
    11:00 +16°C° 1 mm 2 mps 652 mmHg 61%
    12:00 +16°C° 1 mm 3 mps 652 mmHg 63%
    13:00 +16°C° 1 mm 3 mps 652 mmHg 65%
    14:00 +16°C° 1.3 mm 3 mps 652 mmHg 67%
    15:00 +15°C° 1.3 mm 4 mps 651 mmHg 68%
    16:00 +15°C° 1.3 mm 4 mps 651 mmHg 70%
    17:00 +13°C° 1 mm 4 mps 651 mmHg 75%
    18:00 +11°C° 1 mm 3 mps 651 mmHg 80%
    19:00 +9°C° 1 mm 3 mps 650 mmHg 84%
    20:00 +9°C° 0.1 mm 3 mps 651 mmHg 85%
    21:00 +8°C° 0.1 mm 3 mps 651 mmHg 85%
    22:00 +7°C° 0.1 mm 3 mps 651 mmHg 85%
    23:00 +7°C° 0 mm 3 mps 651 mmHg 84%

    Day after tomorrow, 28 May, Sunday

    Time Temperature Precipitation Wind Pressure Humidity
    00:00 +7°C° 0 mm 2 mps 651 mmHg 83%
    01:00 +6°C° 0 mm 2 mps 651 mmHg 82%
    02:00 +6°C° 0 mm 2 mps 651 mmHg 82%
    03:00 +6°C° 0 mm 2 mps 651 mmHg 82%
    04:00 +6°C° 0 mm 2 mps 651 mmHg 82%
    05:00 +7°C° 0 mm 2 mps 651 mmHg 78%
    06:00 +9°C° 0 mm 2 mps 652 mmHg 75%
    07:00 +12°C° 0 mm 2 mps 653 mmHg 71%
    08:00 +14°C° 0 mm 2 mps 654 mmHg 62%
    09:00 +16°C° 0 mm 2 mps 654 mmHg 53%
    10:00 +17°C° 0 mm 2 mps 655 mmHg 45%
    11:00 +17°C° 0.3 mm 2 mps 655 mmHg 47%
    12:00 +17°C° 0.3 mm 2 mps 655 mmHg 50%
    13:00 +17°C° 0.3 mm 2 mps 655 mmHg 53%
    14:00 +17°C° 0.9 mm 2 mps 655 mmHg 56%
    15:00 +16°C° 0.9 mm 2 mps 655 mmHg 60%
    16:00 +16°C° 0.9 mm 2 mps 654 mmHg 63%
    17:00 +14°C° 0.5 mm 2 mps 654 mmHg 70%
    18:00 +12°C° 0.5 mm 1 mps 654 mmHg 78%
    19:00 +10°C° 0.5 mm 1 mps 654 mmHg 85%
    20:00 +10°C° 0 mm 1 mps 654 mmHg 85%
    21:00 +9°C° 0 mm 1 mps 654 mmHg 86%
    22:00 +9°C° 0 mm 1 mps 654 mmHg 86%
    23:00 +7°C° 0 mm 2 mps 654 mmHg 86%

    29 May, Monday

    Time Temperature Precipitation Wind Pressure Humidity
    00:00 +7°C° 0 mm 2 mps 654 mmHg 86%
    01:00 +7°C° 0 mm 2 mps 653 mmHg 86%
    02:00 +7°C° 0 mm 2 mps 653 mmHg 85%
    03:00 +6°C° 0 mm 2 mps 653 mmHg 85%
    04:00 +6°C° 0 mm 2 mps 653 mmHg 85%
    05:00 +8°C° 0 mm 2 mps 653 mmHg 81%
    06:00 +10°C° 0 mm 2 mps 654 mmHg 76%
    07:00 +13°C° 0 mm 2 mps 655 mmHg 72%
    08:00 +14°C° 0 mm 1 mps 655 mmHg 64%
    09:00 +16°C° 0 mm 1 mps 655 mmHg 56%
    10:00 +19°C° 0 mm 1 mps 656 mmHg 48%
    11:00 +19°C° 0.8 mm 1 mps 655 mmHg 52%
    12:00 +17°C° 0.8 mm 2 mps 655 mmHg 57%
    13:00 +17°C° 0.8 mm 2 mps 655 mmHg 62%
    14:00 +16°C° 1.2 mm 2 mps 654 mmHg 65%
    15:00 +16°C° 1.2 mm 2 mps 654 mmHg 68%
    16:00 +15°C° 1.2 mm 2 mps 654 mmHg 71%
    17:00 +14°C° 0.2 mm 2 mps 654 mmHg 76%
    18:00 +12°C° 0.2 mm 2 mps 653 mmHg 81%
    19:00 +10°C° 0.2 mm 1 mps 653 mmHg 86%
    20:00 +10°C° 0.1 mm 1 mps 653 mmHg 86%
    21:00 +9°C° 0.1 mm 1 mps 653 mmHg 87%
    22:00 +8°C° 0.1 mm 1 mps 653 mmHg 87%
    23:00 +8°C° 0 mm 1 mps 652 mmHg 87%

    30 May, Tuesday

    Time Temperature Precipitation Wind Pressure Humidity
    00:00 +8°C° 0 mm 1 mps 652 mmHg 87%
    01:00 +7°C° 0 mm 1 mps 652 mmHg 87%
    02:00 +7°C° 0 mm 1 mps 652 mmHg 86%
    03:00 +7°C° 0 mm 1 mps 652 mmHg 85%
    04:00 +7°C° 0 mm 1 mps 652 mmHg 84%
    05:00 +9°C° 0 mm 1 mps 652 mmHg 78%
    06:00 +11°C° 0 mm 1 mps 653 mmHg 71%
    07:00 +13°C° 0 mm 0 mps 654 mmHg 65%
    08:00 +15°C° 0 mm 1 mps 654 mmHg 58%
    09:00 +18°C° 0 mm 1 mps 655 mmHg 51%
    10:00 +20°C° 0 mm 1 mps 655 mmHg 45%
    11:00 +19°C° 0.1 mm 2 mps 655 mmHg 45%
    12:00 +19°C° 0.1 mm 2 mps 655 mmHg 45%
    13:00 +20°C° 0.1 mm 3 mps 655 mmHg 45%
    14:00 +19°C° 0.2 mm 3 mps 655 mmHg 50%
    15:00 +18°C° 0.2 mm 3 mps 655 mmHg 54%
    16:00 +17°C° 0.2 mm 3 mps 654 mmHg 58%
    17:00 +15°C° 0.1 mm 2 mps 654 mmHg 67%
    18:00 +13°C° 0.1 mm 2 mps 653 mmHg 76%
    19:00 +11°C° 0.1 mm 1 mps 653 mmHg 84%
    20:00 +10°C° 0 mm 1 mps 653 mmHg 85%
    21:00 +9°C° 0 mm 1 mps 653 mmHg 87%
    22:00 +9°C° 0 mm 1 mps 653 mmHg 88%
    23:00 +8°C° 0 mm 1 mps 653 mmHg 88%

    31 May, Wednesday

    Time Temperature Precipitation Wind Pressure Humidity
    00:00 +8°C° 0 mm 1 mps 653 mmHg 88%
    01:00 +8°C° 0 mm 1 mps 653 mmHg 88%
    02:00 +7°C° 0 mm 1 mps 652 mmHg 88%
    03:00 +7°C° 0 mm 1 mps 652 mmHg 87%
    04:00 +7°C° 0 mm 1 mps 652 mmHg 86%
    05:00 +10°C° 0 mm 1 mps 653 mmHg 77%
    06:00 +11°C° 0 mm 0 mps 654 mmHg 68%
    07:00 +14°C° 0 mm 0 mps 655 mmHg 59%
    08:00 +16°C° 0 mm 1 mps 655 mmHg 54%
    09:00 +19°C° 0 mm 1 mps 655 mmHg 50%
    10:00 +19°C° 0 mm 2 mps 656 mmHg 45%
    11:00 +20°C° 0 mm 2 mps 656 mmHg 45%
    12:00 +20°C° 0 mm 3 mps 656 mmHg 45%
    13:00 +21°C° 0 mm 3 mps 656 mmHg 45%
    14:00 +20°C° 0.1 mm 3 mps 656 mmHg 47%
    15:00 +20°C° 0.1 mm 3 mps 655 mmHg 49%
    16:00 +19°C° 0.1 mm 3 mps 655 mmHg 52%
    17:00 +17°C° 0 mm 2 mps 655 mmHg 61%
    18:00 +14°C° 0 mm 2 mps 654 mmHg 71%
    19:00 +12°C° 0 mm 1 mps 654 mmHg 81%
    20:00 +11°C° 0 mm 1 mps 654 mmHg 82%
    21:00 +10°C° 0 mm 1 mps 654 mmHg 84%
    22:00 +9°C° 0 mm 1 mps 654 mmHg 85%
    23:00 +9°C° 0 mm 1 mps 653 mmHg 85%
    Show more